Weather History for Renton, WA

Change the Weather History Date:

Wednesday, March 26, 2014

  Actual Average Record
Temperature  
Mean Temperature 46 °F -  
Max Temperature 52 °F 53 °F 62 °F (2007)
Min Temperature 42 °F 40 °F 30 °F (2009)
Degree Days  
Heating Degree Days 18    
Moisture  
Dew Point 44 °F    
Average Humidity 89    
Maximum Humidity 97    
Minimum Humidity 74    
Precipitation  
Precipitation 0.08 in - - ()
Sea Level Pressure  
Sea Level Pressure 29.58 in    
Wind  
Wind Speed 3 mph (SSE)    
Max Wind Speed 9 mph    
Max Gust Speed -    
Visibility 10 miles    
Events Rain    
Averages and records for this station are not official NWS values.
T = Trace of Precipitation, MM = Missing Value Source: NWS Daily Summary

Daily Weather History Graph

Daily Weather History Graph

Search for Another Location

Airport:

Trip Planner

Search our weather history database for the weather conditions in past years. The results will help you decide how hot, cold, wet, or windy it might be!

Date:

Astronomy

Mar. 26, 2014 Rise Set
Actual Time 6:59 AM PDT 7:30 PM PDT
Civil Twilight 6:28 AM PDT 8:01 PM PDT
Nautical Twilight 5:52 AM PDT 8:37 PM PDT
Astronomical Twilight 5:14 AM PDT 9:16 PM PDT
Moon 4:29 AM PDT (3/26) 2:59 PM PDT (3/26)
Length of Visible Light 13h 32m
Length of Day
12h 30m
Waning Crescent, 21% of the Moon is Illuminated
Mar 26
Waning Crescent
Mar 30
New
Apr 7
First Quarter
Apr 15
Full
Apr 22
Last Quarter

Hourly Weather History & Observations

Time (PDT) Temp. Windchill Dew Point Humidity Pressure Visibility Wind Dir Wind Speed Gust Speed Precip Events Conditions
12:53 AM 46.0 °F 43.1 °F 44.1 °F 93% 29.65 in 10.0 mi ESE 5.8 mph - 0.00 in   Overcast
1:53 AM 46.0 °F - 43.0 °F 89% 29.65 in 10.0 mi Calm Calm - 0.01 in   Mostly Cloudy
2:53 AM 46.0 °F - 42.1 °F 86% 29.65 in 10.0 mi Calm Calm - N/A   Mostly Cloudy
3:53 AM 44.1 °F - 43.0 °F 96% 29.63 in 10.0 mi Calm Calm - N/A   Mostly Cloudy
4:53 AM 43.0 °F - 42.1 °F 97% 29.62 in 10.0 mi Calm Calm - N/A   Partly Cloudy
5:53 AM 42.1 °F 40.2 °F 39.9 °F 92% 29.61 in 10.0 mi South 3.5 mph - N/A   Clear
6:53 AM 42.1 °F 40.2 °F 39.9 °F 92% 29.60 in 10.0 mi South 3.5 mph - N/A   Clear
7:53 AM 42.1 °F 39.2 °F 39.9 °F 92% 29.60 in 10.0 mi SSE 4.6 mph - N/A   Clear
8:53 AM 44.1 °F 41.5 °F 39.9 °F 85% 29.60 in 10.0 mi SSE 4.6 mph - N/A   Mostly Cloudy
9:53 AM 46.0 °F 43.1 °F 42.1 °F 86% 29.61 in 10.0 mi South 5.8 mph - 0.00 in Rain Light Rain
10:53 AM 46.9 °F - 44.1 °F 90% 29.60 in 10.0 mi Calm Calm - 0.02 in Rain Light Rain
11:53 AM 48.0 °F - 44.1 °F 86% 29.59 in 10.0 mi NNW 4.6 mph - 0.00 in   Overcast
12:53 PM 48.0 °F - 44.1 °F 86% 29.58 in 10.0 mi NNW 5.8 mph - N/A   Overcast
1:53 PM 50.0 °F - 43.0 °F 77% 29.56 in 10.0 mi NW 5.8 mph - N/A   Overcast
2:53 PM 51.1 °F - 43.0 °F 74% 29.55 in 10.0 mi WNW 3.5 mph - 0.00 in Rain Light Rain
3:53 PM 51.1 °F - 44.1 °F 77% 29.55 in 8.0 mi Calm Calm - 0.01 in Rain Light Rain
4:53 PM 51.1 °F - 45.0 °F 80% 29.55 in 6.0 mi SSE 3.5 mph - 0.01 in Rain Light Rain
5:53 PM 48.9 °F - 46.0 °F 90% 29.55 in 10.0 mi East 3.5 mph - 0.03 in Rain Light Rain
6:45 PM 48.9 °F - 46.9 °F 93% 29.53 in 10.0 mi Calm Calm - 0.00 in Rain Light Rain
6:53 PM 48.9 °F - 46.9 °F 93% 29.54 in 10.0 mi SE 4.6 mph - 0.00 in Rain Light Rain
7:03 PM 48.9 °F - 46.9 °F 93% 29.53 in 10.0 mi Calm Calm - 0.00 in   Overcast
7:11 PM 48.9 °F - 46.9 °F 93% 29.53 in 10.0 mi SSE 4.6 mph - 0.00 in   Overcast
7:53 PM 48.9 °F - 45.0 °F 86% 29.55 in 10.0 mi SSE 9.2 mph - 0.00 in   Overcast
8:53 PM 48.0 °F - 44.1 °F 86% 29.57 in 8.0 mi Variable 5.8 mph - 0.00 in Rain Light Rain
9:53 PM 46.0 °F - 45.0 °F 96% 29.57 in 10.0 mi Calm Calm - 0.00 in   Overcast
10:53 PM 46.0 °F 44.8 °F 44.1 °F 93% 29.58 in 10.0 mi ESE 3.5 mph - N/A   Overcast
11:53 PM 46.0 °F 44.8 °F 44.1 °F 93% 29.60 in 10.0 mi ESE 3.5 mph - N/A   Mostly Cloudy